SWA2487 KPHX-KSAN

Flight info

Callsign SWA2487
Flight time 0h 45m
Altitude 34000
Route FYRBD1 MOHAK J2 HOGGZ LUCKI1
Aircraft B738/M-SADE2E3GIJ4RWZ/LB1D1

Departure

Time 2026-05-07 22:39
Airport Phoenix Sky Harbor International Airport (KPHX)

Arrival

Time 2026-05-07 23:24
Airport San Diego International Airport (KSAN)
Time Latitude Longitude Altitude Speed Heading
2026-05-07 22:13 33.43353 -111.99484 1123 ft 0 kts 68°
2026-05-07 22:31 33.43353 -111.99485 1113 ft 1 kts 68°
2026-05-07 22:31 33.43348 -111.99503 1119 ft 3 kts 86°
2026-05-07 22:32 33.43350 -111.99522 1113 ft 3 kts 136°
2026-05-07 22:32 33.43361 -111.99529 1121 ft 1 kts 179°
2026-05-07 22:32 33.43363 -111.99529 1114 ft 1 kts 180°
2026-05-07 22:35 33.43362 -111.99529 1113 ft 1 kts 180°
2026-05-07 22:35 33.43349 -111.99529 1113 ft 4 kts 179°
2026-05-07 22:36 33.43297 -111.99509 1118 ft 9 kts 137°
2026-05-07 22:36 33.43282 -111.99433 1123 ft 13 kts 87°
2026-05-07 22:36 33.43247 -111.99343 1120 ft 12 kts 174°
2026-05-07 22:36 33.43207 -111.99343 1123 ft 0 kts 182°
2026-05-07 22:37 33.43204 -111.99343 1123 ft 1 kts 181°
2026-05-07 22:37 33.43193 -111.99343 1118 ft 4 kts 181°
2026-05-07 22:37 33.43146 -111.99345 1117 ft 9 kts 183°
2026-05-07 22:37 33.43104 -111.99385 1121 ft 8 kts 258°
2026-05-07 22:38 33.43104 -111.99479 1122 ft 19 kts 271°
2026-05-07 22:38 33.43102 -111.99944 1115 ft 94 kts 270°
2026-05-07 22:38 33.43100 -112.01002 1118 ft 158 kts 268°
2026-05-07 22:38 33.43094 -112.02483 1436 ft 185 kts 267°
2026-05-07 22:39 33.43063 -112.03940 2667 ft 155 kts 268°
2026-05-07 22:39 33.43020 -112.05281 3220 ft 175 kts 267°
2026-05-07 22:39 33.42943 -112.06853 3518 ft 200 kts 260°
2026-05-07 22:39 33.42496 -112.08496 3704 ft 223 kts 249°
2026-05-07 22:40 33.41914 -112.10313 3983 ft 238 kts 250°
2026-05-07 22:40 33.41321 -112.12210 4219 ft 259 kts 250°
2026-05-07 22:40 33.40662 -112.14264 4774 ft 268 kts 245°
2026-05-07 22:40 33.39527 -112.16018 5554 ft 271 kts 220°
2026-05-07 22:41 33.37881 -112.17158 6271 ft 277 kts 204°
2026-05-07 22:41 33.36081 -112.18016 7210 ft 282 kts 194°
2026-05-07 22:41 33.34121 -112.18112 7671 ft 286 kts 165°
2026-05-07 22:41 33.32294 -112.17184 8398 ft 290 kts 153°
2026-05-07 22:42 33.30427 -112.16229 9266 ft 297 kts 157°
2026-05-07 22:42 33.28462 -112.15417 10138 ft 303 kts 165°
2026-05-07 22:42 33.26288 -112.15401 10598 ft 329 kts 193°
2026-05-07 22:42 33.24185 -112.16713 10833 ft 356 kts 223°
2026-05-07 22:43 33.22783 -112.19158 11454 ft 364 kts 251°
2026-05-07 22:43 33.22442 -112.22134 12291 ft 364 kts 277°
2026-05-07 22:43 33.22665 -112.25161 13120 ft 370 kts 269°
2026-05-07 22:43 33.22030 -112.28150 13857 ft 378 kts 242°
2026-05-07 22:44 33.20492 -112.30714 14634 ft 381 kts 229°
2026-05-07 22:44 33.18687 -112.33045 15364 ft 385 kts 226°
2026-05-07 22:44 33.16835 -112.35393 16076 ft 390 kts 227°
2026-05-07 22:44 33.15033 -112.37805 16780 ft 395 kts 229°
2026-05-07 22:45 33.13258 -112.40331 17486 ft 399 kts 230°
2026-05-07 22:45 33.11513 -112.42924 18181 ft 404 kts 231°
2026-05-07 22:45 33.09756 -112.45608 18781 ft 409 kts 232°
2026-05-07 22:45 33.08032 -112.48274 19368 ft 413 kts 232°
2026-05-07 22:46 33.06266 -112.51015 19962 ft 418 kts 232°
2026-05-07 22:46 33.04493 -112.53760 20548 ft 422 kts 232°
2026-05-07 22:46 33.02685 -112.56554 21134 ft 426 kts 232°
2026-05-07 22:46 33.00853 -112.59380 21702 ft 431 kts 232°
2026-05-07 22:47 32.99018 -112.62206 22255 ft 435 kts 232°
2026-05-07 22:47 32.97152 -112.65083 22821 ft 439 kts 233°
2026-05-07 22:47 32.95633 -112.68236 23313 ft 444 kts 250°
2026-05-07 22:47 32.94898 -112.71799 23811 ft 445 kts 262°
2026-05-07 22:48 32.94414 -112.75446 24311 ft 447 kts 263°
2026-05-07 22:48 32.93961 -112.79134 24801 ft 449 kts 263°
2026-05-07 22:48 32.93509 -112.82823 25269 ft 452 kts 263°
2026-05-07 22:48 32.93043 -112.86521 25714 ft 454 kts 263°
2026-05-07 22:49 32.92558 -112.90258 26150 ft 457 kts 263°
2026-05-07 22:49 32.92059 -112.94005 26576 ft 460 kts 263°
2026-05-07 22:49 32.91554 -112.97735 26985 ft 463 kts 262°
2026-05-07 22:49 32.91036 -113.01532 27389 ft 466 kts 263°
2026-05-07 22:50 32.90512 -113.05352 27799 ft 468 kts 263°
2026-05-07 22:50 32.89987 -113.09170 28193 ft 471 kts 263°
2026-05-07 22:50 32.89454 -113.13044 28591 ft 474 kts 263°
2026-05-07 22:50 32.88918 -113.16938 28929 ft 477 kts 263°
2026-05-07 22:51 32.88380 -113.20831 29271 ft 480 kts 263°
2026-05-07 22:51 32.87835 -113.24773 29612 ft 483 kts 263°
2026-05-07 22:51 32.87288 -113.28715 29944 ft 486 kts 263°
2026-05-07 22:51 32.86736 -113.32688 30268 ft 487 kts 263°
2026-05-07 22:52 32.86181 -113.36649 30706 ft 485 kts 263°
2026-05-07 22:52 32.85624 -113.40626 31250 ft 481 kts 262°
2026-05-07 22:52 32.85081 -113.44508 31804 ft 476 kts 262°
2026-05-07 22:52 32.84535 -113.48396 32291 ft 473 kts 262°
2026-05-07 22:53 32.83997 -113.52233 32702 ft 472 kts 262°
2026-05-07 22:53 32.83455 -113.56081 33108 ft 471 kts 262°
2026-05-07 22:53 32.82917 -113.59894 33528 ft 469 kts 261°
2026-05-07 22:53 32.82375 -113.63733 33863 ft 470 kts 261°
2026-05-07 22:54 32.81827 -113.67593 33844 ft 474 kts 261°
2026-05-07 22:54 32.80733 -113.75272 33838 ft 472 kts 261°
2026-05-07 22:55 32.79633 -113.82959 33846 ft 469 kts 262°
2026-05-07 22:55 32.78534 -113.90618 33853 ft 472 kts 261°
2026-05-07 22:56 32.77468 -113.98334 33842 ft 473 kts 266°
2026-05-07 22:56 32.77398 -114.06090 33865 ft 473 kts 273°
2026-05-07 22:57 32.77682 -114.13898 33874 ft 474 kts 276°
2026-05-07 22:57 32.78071 -114.21737 33872 ft 475 kts 275°
2026-05-07 22:58 32.78399 -114.29626 33882 ft 476 kts 275°
2026-05-07 22:58 32.78705 -114.37439 33878 ft 476 kts 277°
2026-05-07 22:58 32.79278 -114.41268 33882 ft 469 kts 290°
2026-05-07 22:59 32.80284 -114.44913 33896 ft 468 kts 292°
2026-05-07 22:59 32.82459 -114.52279 33886 ft 468 kts 293°
2026-05-07 23:00 32.84532 -114.59627 33890 ft 469 kts 292°
2026-05-07 23:00 32.86548 -114.67006 33898 ft 469 kts 292°
2026-05-07 23:01 32.88052 -114.74541 33867 ft 478 kts 274°
2026-05-07 23:01 32.87825 -114.82464 33881 ft 479 kts 271°
2026-05-07 23:01 32.87682 -114.86447 33464 ft 484 kts 271°
2026-05-07 23:02 32.87558 -114.90391 32822 ft 482 kts 272°
2026-05-07 23:02 32.87446 -114.94378 32117 ft 482 kts 272°
2026-05-07 23:02 32.87347 -114.98350 31387 ft 483 kts 272°
2026-05-07 23:02 32.87253 -115.02350 30870 ft 480 kts 272°
2026-05-07 23:03 32.87162 -115.06308 30339 ft 476 kts 272°
2026-05-07 23:03 32.87071 -115.10209 29784 ft 474 kts 272°
2026-05-07 23:03 32.86978 -115.14126 29183 ft 470 kts 272°
2026-05-07 23:03 32.86915 -115.16750 28795 ft 467 kts 272°
2026-05-07 23:04 32.86822 -115.20544 28260 ft 463 kts 272°
2026-05-07 23:04 32.86728 -115.24352 27713 ft 459 kts 272°
2026-05-07 23:04 32.86636 -115.28128 27185 ft 455 kts 272°
2026-05-07 23:04 32.86542 -115.31873 26631 ft 451 kts 272°
2026-05-07 23:05 32.86389 -115.35592 26111 ft 450 kts 267°
2026-05-07 23:05 32.85921 -115.39262 25580 ft 449 kts 262°
2026-05-07 23:05 32.85321 -115.42912 25066 ft 446 kts 262°
2026-05-07 23:05 32.84752 -115.46525 24536 ft 444 kts 263°
2026-05-07 23:06 32.84222 -115.50139 24016 ft 441 kts 263°
2026-05-07 23:06 32.83663 -115.53708 23506 ft 440 kts 262°
2026-05-07 23:06 32.83075 -115.57265 22913 ft 437 kts 261°
2026-05-07 23:06 32.82481 -115.60808 22368 ft 433 kts 261°
2026-05-07 23:07 32.81899 -115.64294 21865 ft 429 kts 261°
2026-05-07 23:07 32.81323 -115.67776 21348 ft 425 kts 261°
2026-05-07 23:07 32.80764 -115.71166 20854 ft 421 kts 261°
2026-05-07 23:07 32.80204 -115.74572 20356 ft 418 kts 260°
2026-05-07 23:08 32.79646 -115.77951 19868 ft 414 kts 261°
2026-05-07 23:08 32.79096 -115.81287 19374 ft 404 kts 261°
2026-05-07 23:08 32.78562 -115.84521 18920 ft 395 kts 262°
2026-05-07 23:08 32.78163 -115.87732 18505 ft 390 kts 266°
2026-05-07 23:09 32.77920 -115.90916 18058 ft 387 kts 268°
2026-05-07 23:09 32.77727 -115.94065 17535 ft 385 kts 269°
2026-05-07 23:09 32.77531 -115.97244 17091 ft 382 kts 268°
2026-05-07 23:09 32.77327 -116.00363 16669 ft 378 kts 268°
2026-05-07 23:10 32.77111 -116.03458 16259 ft 374 kts 268°
2026-05-07 23:10 32.76886 -116.06536 15856 ft 371 kts 268°
2026-05-07 23:10 32.76658 -116.09576 15457 ft 368 kts 268°
2026-05-07 23:10 32.76430 -116.12597 15070 ft 365 kts 268°
2026-05-07 23:11 32.76202 -116.15590 14662 ft 363 kts 268°
2026-05-07 23:11 32.75975 -116.18552 14264 ft 361 kts 268°
2026-05-07 23:11 32.75748 -116.21516 13875 ft 359 kts 268°
2026-05-07 23:11 32.75522 -116.24466 13449 ft 358 kts 268°
2026-05-07 23:12 32.75294 -116.27416 13025 ft 356 kts 268°
2026-05-07 23:12 32.75069 -116.30329 12604 ft 353 kts 267°
2026-05-07 23:12 32.74846 -116.33190 12222 ft 350 kts 267°
2026-05-07 23:12 32.74621 -116.36091 11832 ft 348 kts 267°
2026-05-07 23:13 32.74402 -116.38908 11464 ft 345 kts 267°
2026-05-07 23:13 32.74183 -116.41729 11077 ft 342 kts 267°
2026-05-07 23:13 32.73964 -116.44529 10707 ft 336 kts 267°
2026-05-07 23:13 32.73750 -116.47239 10329 ft 323 kts 267°
2026-05-07 23:14 32.73542 -116.49867 9978 ft 312 kts 267°
2026-05-07 23:14 32.73320 -116.52343 9889 ft 293 kts 266°
2026-05-07 23:14 32.73085 -116.54763 9397 ft 298 kts 265°
2026-05-07 23:14 32.72845 -116.57204 9048 ft 298 kts 265°
2026-05-07 23:15 32.72607 -116.59629 8705 ft 289 kts 265°
2026-05-07 23:15 32.72380 -116.61954 8417 ft 280 kts 266°
2026-05-07 23:15 32.72157 -116.64259 8145 ft 280 kts 266°
2026-05-07 23:15 32.71942 -116.66558 7866 ft 280 kts 267°
2026-05-07 23:16 32.71762 -116.68831 7613 ft 281 kts 268°
2026-05-07 23:16 32.71585 -116.71149 7317 ft 282 kts 267°
2026-05-07 23:16 32.71404 -116.73470 7015 ft 283 kts 267°
2026-05-07 23:16 32.71225 -116.75777 6742 ft 278 kts 267°
2026-05-07 23:17 32.71047 -116.78038 6457 ft 271 kts 266°
2026-05-07 23:17 32.70874 -116.80235 6163 ft 264 kts 267°
2026-05-07 23:17 32.70628 -116.82372 5851 ft 260 kts 256°
2026-05-07 23:17 32.70056 -116.84368 5561 ft 253 kts 251°
2026-05-07 23:18 32.69425 -116.86296 5270 ft 247 kts 251°
2026-05-07 23:18 32.68869 -116.88200 4956 ft 239 kts 264°
2026-05-07 23:18 32.68894 -116.90119 4712 ft 232 kts 276°
2026-05-07 23:18 32.69022 -116.92034 4410 ft 232 kts 276°
2026-05-07 23:19 32.69141 -116.93924 4169 ft 226 kts 275°
2026-05-07 23:19 32.69251 -116.95723 3903 ft 218 kts 275°
2026-05-07 23:19 32.69355 -116.97515 3646 ft 213 kts 275°
2026-05-07 23:19 32.69453 -116.99238 3383 ft 212 kts 275°
2026-05-07 23:20 32.69549 -117.00960 3129 ft 205 kts 274°
2026-05-07 23:20 32.69640 -117.02618 2881 ft 199 kts 275°
2026-05-07 23:20 32.69816 -117.04259 2671 ft 192 kts 283°
2026-05-07 23:20 32.70144 -117.05720 2400 ft 180 kts 288°
2026-05-07 23:21 32.70485 -117.07106 2163 ft 169 kts 287°
2026-05-07 23:21 32.70805 -117.08420 1946 ft 163 kts 286°
2026-05-07 23:21 32.71109 -117.09681 1694 ft 154 kts 286°
2026-05-07 23:21 32.71395 -117.10866 1440 ft 143 kts 286°
2026-05-07 23:22 32.71666 -117.11976 1260 ft 139 kts 287°
2026-05-07 23:22 32.71932 -117.13092 1028 ft 143 kts 286°
2026-05-07 23:22 32.72207 -117.14231 787 ft 143 kts 284°
2026-05-07 23:22 32.72484 -117.15346 583 ft 140 kts 285°
2026-05-07 23:23 32.72752 -117.16457 318 ft 139 kts 284°
2026-05-07 23:23 32.72999 -117.17527 119 ft 135 kts 285°
2026-05-07 23:23 32.73262 -117.18583 28 ft 125 kts 285°
2026-05-07 23:23 32.73455 -117.19373 27 ft 71 kts 286°
2026-05-07 23:24 32.73533 -117.19737 29 ft 30 kts 264°
2026-05-07 23:24 32.73494 -117.19883 27 ft 9 kts 249°
2026-05-07 23:24 32.73490 -117.19955 28 ft 9 kts 275°
2026-05-07 23:24 32.73484 -117.19971 26 ft 1 kts 202°
2026-05-07 23:25 32.73474 -117.19957 31 ft 4 kts 95°
2026-05-07 23:25 32.73470 -117.19872 27 ft 16 kts 101°
2026-05-07 23:25 32.73438 -117.19739 30 ft 17 kts 109°
2026-05-07 23:25 32.73372 -117.19697 26 ft 9 kts 190°
2026-05-07 23:26 32.73319 -117.19723 25 ft 6 kts 193°
2026-05-07 23:26 32.73292 -117.19717 24 ft 2 kts 152°
2026-05-07 23:26 32.73277 -117.19702 24 ft 3 kts 139°
2026-05-07 23:26 32.73273 -117.19697 23 ft 0 kts 136°